EW5238 Weather Reports


Display with metric or nautical units.
time (UTC)temp
F
wind
direction
speed
MPH
gust
MPH
rain 1hr
in
rain 24hr
in
rain mn
in
humidity
%
barometer
mb
20260502170457 70 190 3.0 8.0 0.00 0.81 0.00 62 1019.8
20260502170225 69 190 3.0 9.0 0.00 0.82 0.00 63 1019.8
20260502163951 69 190 3.0 8.0 0.00 0.85 0.00 65 1019.8
20260502163453 69 190 3.0 6.0 0.00 0.86 0.00 65 1019.8
20260502162953 68 190 3.0 8.0 0.00 0.87 0.00 64 1019.9
20260502162447 68 190 3.0 7.0 0.00 0.88 0.00 65 1019.9
20260502161947 67 190 3.0 10.0 0.00 0.89 0.00 66 1019.9
20260502161443 67 190 3.0 10.0 0.00 0.89 0.00 66 1019.8
20260502160941 67 190 2.0 8.0 0.00 0.90 0.00 67 1019.8
20260502160444 67 190 3.0 7.0 0.00 0.90 0.00 66 1019.8
20260502151933 65 190 2.0 7.0 0.00 0.94 0.00 65 1019.6
20260502151429 64 190 3.0 7.0 0.00 0.96 0.00 65 1019.6
20260502150928 64 190 3.0 7.0 0.00 0.98 0.00 66 1019.6
20260502150657 64 190 2.0 6.0 0.00 0.99 0.00 65 1019.6
20260502130358 55 190 1.0 5.0 0.00 1.12 0.00 1 1018.4
20260502123344 52 190 1.0 3.0 0.00 1.12 0.00 1 1017.9
20260502122844 52 190 1.0 4.0 0.00 1.12 0.00 1 1017.7
20260502122337 51 190 0.0 4.0 0.00 1.12 0.00 1 1017.7
20260502121834 0 190 0.0 0.0 0.00 1.12 0.00 1017.6
20260502121255 0 0.0 0.0 0.00 1.12 0.00 1017.6
20260502120748 0 0.0 0.0 0.00 1.12 0.00 1017.5
20260502120159 0 0.0 0.0 0.00 1.12 0.00 1017.3
20260502115658 0 0.0 0.0 0.00 1.12 0.00 1017.3
20260502115423 0 0.0 0.0 0.00 1.12 0.00 1017.3
20260502114658 0 0.0 0.0 0.00 1.12 0.00 1017.2
20260502114150 0 0.0 0.0 0.00 1.12 0.00 1017.2
20260502113558 0 0.0 0.0 0.00 1.12 0.00 1017.2
20260502113058 0 0.0 0.0 0.00 1.12 0.00 1017.2
20260502112551 0 0.0 0.0 0.00 1.12 0.00 1017.0
20260502111957 0 0.0 0.0 0.00 1.12 0.00 1016.9
20260502111449 0 0.0 0.0 0.00 1.12 0.00 1016.8
20260502110858 0 0.0 0.0 0.00 1.12 0.00 1016.7
20260502110358 0 0.0 0.0 0.00 1.12 0.00 1016.7
20260502105854 0 0.0 0.0 0.00 1.12 0.00 1016.6
20260502105348 0 0.0 0.0 0.00 1.12 0.00 1016.5
20260502104754 0 0.0 0.0 0.00 1.12 0.00 1016.4
20260502104250 0 0.0 0.0 0.00 1.15 0.00 1016.3
20260502103745 0 0.0 0.0 0.00 1.17 0.00 1016.3
20260502103152 51 0.0 0.0 0.00 1.19 0.00 1 1016.3
20260502102652 51 0.0 0.0 0.00 1.20 0.00 1 1016.2
20260502102140 51 190 0.0 0.0 0.00 1.20 0.00 1 1016.1
20260502101630 51 190 0.0 2.0 0.00 1.21 0.00 1 1016.1
20260502101106 50 190 0.0 3.0 0.00 1.22 0.00 1 1016.1
20260502100606 51 190 0.0 3.0 0.00 1.23 0.00 1 1016.2
20260502100338 51 190 0.0 4.0 0.00 1.23 0.00 1 1016.1
20260502091103 51 190 1.0 4.0 0.00 1.36 0.00 1 1015.5
20260502090557 51 190 2.0 3.0 0.00 1.38 0.00 1 1015.4
20260502071528 52 190 2.0 5.0 0.00 1.73 0.00 1 1014.7
20260502071300 52 190 1.0 5.0 0.00 1.73 0.00 1 1014.5
20260502070528 52 190 1.0 5.0 0.00 1.73 0.00 1 1014.6
20260502070023 52 190 1.0 4.0 0.00 1.73 0.00 1 1014.8
20260502065522 52 190 1.0 3.0 0.00 1.73 0.00 1 1014.8
20260502065019 52 190 2.0 6.0 0.00 1.73 0.00 1 1014.9
20260502064750 52 190 2.0 6.0 0.00 1.73 0.00 1 1014.9
20260502064017 52 190 2.0 4.0 0.00 1.73 0.00 1 1014.9
20260502063513 52 190 1.0 4.0 0.00 1.73 0.00 1 1015.1
20260502063011 52 190 1.0 3.0 0.00 1.73 0.00 1 1015.0
20260502062013 52 190 1.0 6.0 0.00 1.73 0.00 1 1015.1
20260502061743 52 190 2.0 6.0 0.00 1.73 0.00 1 1015.0
20260502061242 52 190 2.0 5.0 0.00 1.73 0.00 1 1015.1
20260502060509 52 190 2.0 5.0 0.00 1.73 0.00 1 1015.1
20260502060006 52 190 2.0 4.0 0.00 1.73 0.00 1 1015.2
20260502055508 52 190 1.0 4.0 0.00 1.73 0.00 1 1015.1
20260502055010 52 190 1.0 3.0 0.00 1.73 0.00 1 1015.0
20260502054506 52 190 1.0 4.0 0.00 1.74 0.00 1 1015.0
20260502054005 51 190 1.0 4.0 0.00 1.74 0.00 1 1015.0
20260502053501 51 190 1.0 6.0 0.00 1.74 0.00 1 1015.1
20260502053000 52 190 2.0 6.0 0.00 1.74 0.00 1 1015.0
20260502052459 52 190 2.0 7.0 0.00 1.74 0.00 1 1015.0
20260502052000 52 190 2.0 7.0 0.00 1.74 0.00 1 1014.9
20260502051459 52 190 2.0 7.0 0.00 1.74 0.00 1 1015.0
20260502050958 52 190 2.0 6.0 0.00 1.74 0.00 1 1015.1
20260502050222 52 190 2.0 9.0 0.00 1.74 1.74 1 1015.1
20260502045452 52 190 3.0 9.0 0.00 1.74 1.74 1 1014.9
20260502044951 52 190 2.0 7.0 0.00 1.74 1.74 1 1014.8
20260502044445 53 190 3.0 9.0 0.00 1.74 1.74 1 1014.9
20260502043945 53 190 3.0 9.0 0.00 1.74 1.74 1 1014.8
20260502043445 53 190 4.0 8.0 0.00 1.74 1.74 1 1014.7
20260502042946 53 190 3.0 9.0 0.00 1.74 1.74 1 1014.7
20260502042447 53 190 3.0 9.0 0.00 1.74 1.74 1 1014.7
20260502041949 53 190 3.0 9.0 0.00 1.74 1.74 1 1014.7
20260502041712 53 190 3.0 7.0 0.00 1.74 1.74 1 1014.7
20260502041214 54 190 3.0 10.0 0.00 1.74 1.74 1 1014.7
20260502040445 54 190 3.0 10.0 0.00 1.74 1.74 1 1014.6
20260502040214 54 190 3.0 9.0 0.00 1.74 1.74 1 1014.5
20260502035442 54 190 2.0 8.0 0.00 1.74 1.74 1 1014.5
20260502034943 54 190 2.0 5.0 0.00 1.74 1.74 1 1014.4
20260502034445 54 190 2.0 6.0 0.00 1.74 1.74 1 1014.4
20260502033946 54 190 2.0 6.0 0.00 1.74 1.74 1 1014.4
20260502033445 54 190 3.0 9.0 0.00 1.74 1.74 1 1014.3
20260502032947 54 190 3.0 9.0 0.00 1.74 1.74 1 1014.3
20260502032441 54 190 3.0 7.0 0.00 1.74 1.74 1 1014.3
20260502031940 54 190 3.0 9.0 0.00 1.74 1.74 1 1014.3
20260502031442 54 190 3.0 8.0 0.00 1.74 1.74 1 1014.3
20260502030934 54 190 3.0 8.0 0.00 1.74 1.74 1 1014.3
20260502030704 54 190 2.0 7.0 0.00 1.74 1.74 1 1014.2
20260502025927 54 190 2.0 7.0 0.00 1.74 1.74 1 1014.1
20260502025432 54 190 2.0 6.0 0.00 1.74 1.74 1 1014.0
20260502024927 54 190 2.0 9.0 0.00 1.74 1.74 1 1014.0
20260502024427 54 190 3.0 9.0 0.00 1.74 1.74 1 1014.0
20260502023930 55 190 3.0 6.0 0.00 1.74 1.74 1 1013.9
20260502023429 55 190 2.0 6.0 0.00 1.74 1.74 1 1014.1
20260502022921 55 190 2.0 5.0 0.00 1.74 1.74 1 1014.0
20260502022426 55 190 2.0 6.0 0.00 1.74 1.74 1 1013.9
20260502021921 55 190 2.0 9.0 0.00 1.74 1.74 1 1013.7
20260502021423 55 190 2.0 9.0 0.00 1.74 1.74 1 1013.5
20260502020917 55 190 3.0 7.0 0.00 1.74 1.74 1 1013.3
20260502020422 55 190 3.0 9.0 0.00 1.74 1.74 1 1013.1
20260502015914 55 190 3.0 9.0 0.00 1.74 1.74 1 1013.1
20260502015414 55 190 3.0 9.0 0.00 1.74 1.74 1 1012.9
20260502014912 55 190 3.0 9.0 0.00 1.74 1.74 1 1012.6
20260502014412 55 190 3.0 9.0 0.00 1.74 1.74 1 1012.2
20260502014150 55 190 2.0 8.0 0.00 1.74 1.74 1 1011.9
20260502013413 55 190 3.0 8.0 0.00 1.74 1.74 1 1011.7
20260502012913 55 190 3.0 8.0 0.01 1.74 1.74 1 1011.6
20260502012406 55 190 3.0 12.0 0.01 1.74 1.74 1 1011.5
20260502011907 55 190 3.0 12.0 0.02 1.74 1.74 1 1011.6
20260502011415 56 190 3.0 10.0 0.03 1.74 1.74 1 1011.7
20260502010907 56 190 3.0 7.0 0.03 1.74 1.74 1 1011.6
20260502010636 56 190 2.0 7.0 0.03 1.74 1.74 1 1011.7
20260502005905 56 190 2.0 7.0 0.04 1.74 1.74 1 1011.9
20260502005404 56 190 2.0 5.0 0.04 1.74 1.74 1 1012.3
20260502004859 56 190 3.0 10.0 0.05 1.74 1.74 1 1012.3
20260502004359 56 190 3.0 10.0 0.06 1.74 1.74 1 1012.2
20260502003900 56 190 3.0 8.0 0.07 1.74 1.74 1 1012.1
20260502003359 56 190 4.0 8.0 0.08 1.74 1.74 1 1011.9
20260502002901 57 190 3.0 9.0 0.07 1.73 1.73 1 1011.9
20260502002359 57 190 2.0 9.0 0.08 1.73 1.73 1 1011.6
20260502001853 57 190 2.0 7.0 0.08 1.72 1.72 1 1011.9
20260502001351 57 190 3.0 8.0 0.07 1.71 1.71 1 1011.8
20260502000853 57 190 3.0 9.0 0.08 1.71 1.71 1 1011.8
20260502000354 57 190 3.0 9.0 0.09 1.71 1.71 1 1011.9
20260501235854 58 190 2.0 8.0 0.10 1.70 1.70 1 1011.8
20260501234842 58 190 2.0 6.0 0.15 1.69 1.69 1 1011.8
20260501234350 58 190 2.0 6.0 0.18 1.68 1.68 1 1011.7
20260501233344 58 190 3.0 9.0 0.16 1.66 1.66 1 1011.4
20260501233119 58 190 3.0 8.0 0.16 1.66 1.66 1 1011.2
20260501232340 58 190 3.0 9.0 0.16 1.65 1.65 1 1011.1
20260501232112 58 190 2.0 9.0 0.15 1.64 1.64 1 1011.0
20260501231340 58 190 2.0 8.0 0.16 1.64 1.64 1 1010.9
20260501230838 58 190 3.0 8.0 0.15 1.63 1.63 1 1010.8
20260501230338 58 190 3.0 7.0 0.15 1.62 1.62 1 1010.6
20260501225839 58 190 3.0 9.0 0.15 1.60 1.60 1 1010.7
20260501225333 58 190 3.0 9.0 0.14 1.57 1.57 1 1010.5
20260501224835 58 190 3.0 8.0 0.11 1.54 1.54 1 1010.4
20260501224332 58 190 4.0 9.0 0.07 1.50 1.51 1 1010.2
20260501223832 58 190 4.0 9.0 0.07 1.50 1.50 1 1010.7
20260501223604 58 190 4.0 11.0 0.07 1.50 1.50 1 1010.1
20260501222837 58 190 4.0 11.0 0.08 1.50 1.50 1 1009.5
20260501222329 59 190 4.0 10.0 0.08 1.49 1.49 1 1009.1
20260501221829 59 190 4.0 9.0 0.10 1.49 1.49 1 1008.8
20260501221328 59 190 4.0 9.0 0.09 1.48 1.49 1 1008.7
20260501220828 59 190 3.0 7.0 0.09 1.48 1.48 1 1008.8
20260501220329 58 190 3.0 7.0 0.09 1.47 1.47 1 1008.6
20260501220056 58 190 3.0 7.0 0.08 1.45 1.45 1 1009.2
20260501215553 58 190 3.0 7.0 0.11 1.43 1.43 1 1009.2
20260501214820 58 190 3.0 12.0 0.13 1.43 1.43 1 1009.1
20260501214321 58 190 5.0 12.0 0.14 1.43 1.43 1 1008.3
20260501213821 58 190 4.0 11.0 0.15 1.43 1.43 1 1007.6
20260501213551 59 190 4.0 9.0 0.16 1.43 1.43 1 1007.7
20260501213052 59 190 4.0 11.0 0.16 1.42 1.42 1 1007.6
20260501212314 59 190 3.0 11.0 0.16 1.41 1.41 1 1007.9
20260501211817 59 190 3.0 9.0 0.15 1.39 1.39 1 1008.5
20260501211316 59 190 3.0 7.0 0.15 1.39 1.39 1 1008.7
20260501210814 59 190 3.0 7.0 0.16 1.39 1.39 1 1008.9
20260501210315 59 190 3.0 9.0 0.16 1.38 1.38 1 1008.8
20260501205816 59 190 3.0 9.0 0.17 1.37 1.37 1 1008.8
20260501205314 59 190 4.0 10.0 0.14 1.32 1.32 1 1007.9
20260501204818 59 190 4.0 10.0 0.14 1.30 1.30 1 1009.8
20260501204316 59 190 3.0 7.0 0.16 1.29 1.29 1 1009.9
20260501203812 59 190 2.0 6.0 0.19 1.28 1.28 1 1009.4
20260501203312 59 190 3.0 6.0 0.19 1.27 1.27 1 1009.2
20260501202814 59 190 4.0 10.0 0.18 1.26 1.26 1 1009.3
20260501202319 59 190 4.0 10.0 0.17 1.25 1.26 1 1009.0
20260501201819 60 190 3.0 7.0 0.17 1.24 1.25 1 1009.3
20260501201313 59 190 3.0 7.0 0.17 1.24 1.24 1 1009.3
20260501200812 59 190 3.0 8.0 0.17 1.23 1.23 1 1009.6
20260501200313 59 190 4.0 8.0 0.16 1.22 1.22 1 1008.2
20260501195806 59 190 4.0 8.0 0.15 1.20 1.20 1 1009.3
20260501195306 59 190 4.0 12.0 0.16 1.18 1.19 1 1008.7
20260501195032 60 190 4.0 12.0 0.21 1.16 1.17 1 1008.7
20260501194307 60 190 3.0 11.0 0.17 1.12 1.13 1 1008.4
20260501193805 60 190 4.0 11.0 0.14 1.09 1.09 1 1009.7
20260501193301 60 190 6.0 11.0 0.14 1.08 1.08 1 1009.4
20260501192811 60 190 4.0 10.0 0.14 1.08 1.08 1 1009.6
20260501192536 60 190 4.0 9.0 0.14 1.08 1.08 1 1009.1
20260501191756 61 190 4.0 9.0 0.13 1.07 1.07 1 1008.8
20260501191301 61 190 3.0 9.0 0.13 1.07 1.07 1 1008.6
20260501190800 61 190 3.0 9.0 0.12 1.06 1.06 1 1008.1
20260501190301 61 190 3.0 8.0 0.12 1.06 1.06 1 1008.2
20260501185802 62 190 3.0 9.0 0.11 1.05 1.06 1 1008.3
20260501185528 62 190 3.0 9.0 0.08 1.02 1.02 1 1008.4
20260501184752 62 190 3.0 7.0 0.01 0.95 0.95 1 1008.9
20260501184252 63 190 2.0 6.0 0.01 0.95 0.95 1 1009.6
20260501184024 63 190 2.0 6.0 0.01 0.95 0.95 1 1008.5
20260501183253 63 190 2.0 6.0 0.00 0.94 0.94 1 1008.4
20260501182752 63 190 2.0 6.0 0.00 0.94 0.94 1 1008.0
20260501182253 63 190 2.0 6.0 0.00 0.94 0.94 1 1008.3
20260501181753 63 190 2.0 6.0 0.00 0.94 0.94 1 1007.7
20260501181256 63 190 2.0 6.0 0.00 0.94 0.94 1 1007.7
20260501181021 63 190 1.0 7.0 0.01 0.94 0.94 1 1007.6
20260501180255 63 190 1.0 7.0 0.01 0.94 0.94 1 1007.5
20260501175751 63 190 2.0 7.0 0.02 0.94 0.94 1 1007.4
20260501175514 62 190 3.0 7.0 0.03 0.94 0.94 1 1007.7
20260501175013 62 190 3.0 9.0 0.04 0.94 0.94 1 1007.5
20260501174514 62 190 4.0 9.0 0.04 0.94 0.94 1 1007.4
20260501173741 62 190 5.0 11.0 0.05 0.94 0.94 1 1007.5
20260501173241 62 190 6.0 12.0 0.06 0.94 0.94 1 1007.0
20260501172741 61 190 6.0 13.0 0.07 0.94 0.94 1 1006.8
20260501172239 61 190 7.0 14.0 0.09 0.94 0.94 1 1007.2
20260501171740 60 190 7.0 17.0 0.09 0.94 0.94 1 1006.5
20260501171513 60 190 5.0 17.0 0.10 0.94 0.94 1 1006.7